User: anonymous   Login
Location: Unspecified
(0.0000°N, 0.0000°E)
Time: 04:37:28
(UTC+02:00)
Language:

Meteor 2-8 Rocket - Orbit

View from above orbital plane
View from above orbital plane
View from above satellite
View from above satellite

Ground track
Ground track

The orbit data is extracted from the following two-line orbital elements,

1 13114U 82025B   16207.23831089  .00000018  00000-0  24838-5 0  9996
2 13114  82.5405 102.9338 0014406 354.0028 116.6518 13.84654590735164
Epoch (UTC): 25 July 2016 05:43:10
Eccentricity: 0.0014406
inclination: 82.5405°
perigee height: 937 km
apogee height: 958 km
right ascension of ascending node: 102.9338°
argument of perigee: 354.0028°
revolutions per day: 13.84654590
mean anomaly at epoch: 116.6518°
orbit number at epoch: 73516

The dashed part of the orbit path shows where the satellite is in the earth's shadow,  

DLR